WZZ4D1 GCLA-GCXO

Flight info

Callsign WZZ4D1
Flight time 0h 22m
Altitude 13000
Route TFN
Aircraft A20N/M-V/N

Departure

Time 2026-05-07 13:52
Airport La Palma Airport (GCLA)

Arrival

Time 2026-05-07 14:15
Airport Tenerife Norte-Ciudad de La Laguna Airport (GCXO)
Time Latitude Longitude Altitude Speed Heading
2026-05-07 13:43 28.62083 -17.75366 113 ft 0 kts 89°
2026-05-07 13:49 28.62082 -17.75362 112 ft 1 kts 118°
2026-05-07 13:50 28.62076 -17.75366 113 ft 1 kts 262°
2026-05-07 13:50 28.62074 -17.75388 115 ft 3 kts 266°
2026-05-07 13:50 28.62078 -17.75425 119 ft 13 kts 278°
2026-05-07 13:50 28.62056 -17.75542 132 ft 20 kts 194°
2026-05-07 13:51 28.61839 -17.75544 129 ft 31 kts 179°
2026-05-07 13:51 28.61699 -17.75563 126 ft 16 kts 201°
2026-05-07 13:51 28.61669 -17.75533 121 ft 6 kts 345°
2026-05-07 13:51 28.61816 -17.75546 129 ft 55 kts 358°
2026-05-07 13:52 28.62467 -17.75557 121 ft 128 kts 359°
2026-05-07 13:52 28.63526 -17.75572 349 ft 163 kts 359°
2026-05-07 13:52 28.64650 -17.75511 1136 ft 161 kts 13°
2026-05-07 13:52 28.65480 -17.74770 1917 ft 160 kts 66°
2026-05-07 13:53 28.65533 -17.73480 2445 ft 175 kts 95°
2026-05-07 13:53 28.65407 -17.72051 2931 ft 191 kts 90°
2026-05-07 13:53 28.65357 -17.70475 3430 ft 208 kts 89°
2026-05-07 13:53 28.65359 -17.68786 3926 ft 224 kts 82°
2026-05-07 13:54 28.65929 -17.67095 4350 ft 242 kts 52°
2026-05-07 13:54 28.67078 -17.65597 4919 ft 259 kts 45°
2026-05-07 13:54 28.68360 -17.64082 5567 ft 275 kts 45°
2026-05-07 13:54 28.69675 -17.62447 6417 ft 284 kts 49°
2026-05-07 13:55 28.70591 -17.60451 7263 ft 294 kts 78°
2026-05-07 13:55 28.70566 -17.58157 8178 ft 299 kts 98°
2026-05-07 13:55 28.70241 -17.55823 9067 ft 304 kts 98°
2026-05-07 13:55 28.69905 -17.53421 9925 ft 310 kts 98°
2026-05-07 13:56 28.69578 -17.50981 10651 ft 320 kts 98°
2026-05-07 13:56 28.69247 -17.48419 11149 ft 338 kts 97°
2026-05-07 13:56 28.68902 -17.45693 11607 ft 357 kts 98°
2026-05-07 13:56 28.68544 -17.42819 12022 ft 376 kts 97°
2026-05-07 13:57 28.68169 -17.39822 12398 ft 394 kts 98°
2026-05-07 13:57 28.67778 -17.36687 12814 ft 407 kts 98°
2026-05-07 13:57 28.67378 -17.33478 13018 ft 409 kts 98°
2026-05-07 13:57 28.66976 -17.30259 13021 ft 409 kts 98°
2026-05-07 13:58 28.66578 -17.27084 13018 ft 409 kts 98°
2026-05-07 13:58 28.66174 -17.23860 13020 ft 409 kts 98°
2026-05-07 13:58 28.65773 -17.20657 13023 ft 408 kts 98°
2026-05-07 13:58 28.65375 -17.17476 13022 ft 408 kts 99°
2026-05-07 13:59 28.64972 -17.14282 13022 ft 407 kts 99°
2026-05-07 13:59 28.64573 -17.11126 13026 ft 408 kts 99°
2026-05-07 13:59 28.64168 -17.07924 13026 ft 408 kts 98°
2026-05-07 13:59 28.63763 -17.04732 13024 ft 409 kts 98°
2026-05-07 14:00 28.63359 -17.01536 13023 ft 407 kts 99°
2026-05-07 14:00 28.62951 -16.98319 13027 ft 407 kts 98°
2026-05-07 14:00 28.62542 -16.95120 13025 ft 407 kts 98°
2026-05-07 14:00 28.62142 -16.91975 13023 ft 407 kts 98°
2026-05-07 14:01 28.61734 -16.88771 13023 ft 408 kts 99°
2026-05-07 14:01 28.61323 -16.85561 13024 ft 407 kts 98°
2026-05-07 14:01 28.60912 -16.82358 13024 ft 408 kts 99°
2026-05-07 14:01 28.60504 -16.79182 13020 ft 408 kts 99°
2026-05-07 14:02 28.60092 -16.75986 13018 ft 406 kts 99°
2026-05-07 14:02 28.59684 -16.72819 12959 ft 408 kts 99°
2026-05-07 14:02 28.59274 -16.69660 12727 ft 405 kts 99°
2026-05-07 14:02 28.58863 -16.66483 12465 ft 402 kts 98°
2026-05-07 14:03 28.58457 -16.63345 12144 ft 400 kts 98°
2026-05-07 14:03 28.58049 -16.60220 11746 ft 397 kts 98°
2026-05-07 14:03 28.57648 -16.57140 11287 ft 392 kts 98°
2026-05-07 14:03 28.57258 -16.54150 10996 ft 381 kts 98°
2026-05-07 14:04 28.56873 -16.51190 10759 ft 368 kts 98°
2026-05-07 14:04 28.56507 -16.48380 10572 ft 354 kts 98°
2026-05-07 14:04 28.56152 -16.45670 10388 ft 343 kts 98°
2026-05-07 14:04 28.55809 -16.43048 10232 ft 331 kts 98°
2026-05-07 14:05 28.55473 -16.40482 10058 ft 320 kts 98°
2026-05-07 14:05 28.55153 -16.38050 9938 ft 308 kts 98°
2026-05-07 14:05 28.54836 -16.35637 9590 ft 307 kts 98°
2026-05-07 14:05 28.54521 -16.33258 9241 ft 305 kts 98°
2026-05-07 14:06 28.54209 -16.30904 8895 ft 302 kts 98°
2026-05-07 14:06 28.53890 -16.28530 8545 ft 300 kts 100°
2026-05-07 14:06 28.53426 -16.26245 8192 ft 298 kts 107°
2026-05-07 14:06 28.52748 -16.24015 7860 ft 296 kts 110°
2026-05-07 14:07 28.52026 -16.21860 7520 ft 294 kts 111°
2026-05-07 14:07 28.51291 -16.19698 7165 ft 291 kts 111°
2026-05-07 14:07 28.50569 -16.17565 6830 ft 289 kts 110°
2026-05-07 14:07 28.49851 -16.15432 6490 ft 286 kts 110°
2026-05-07 14:08 28.49154 -16.13353 6362 ft 275 kts 110°
2026-05-07 14:08 28.48490 -16.11369 6274 ft 263 kts 110°
2026-05-07 14:08 28.47840 -16.09479 6169 ft 253 kts 115°
2026-05-07 14:08 28.46745 -16.07980 5998 ft 244 kts 152°
2026-05-07 14:09 28.45165 -16.07558 5756 ft 234 kts 191°
2026-05-07 14:09 28.43661 -16.08161 5520 ft 226 kts 208°
2026-05-07 14:09 28.42245 -16.08948 5250 ft 224 kts 213°
2026-05-07 14:09 28.41153 -16.10132 4940 ft 216 kts 247°
2026-05-07 14:10 28.40870 -16.11703 4811 ft 199 kts 280°
2026-05-07 14:10 28.41215 -16.13202 4798 ft 196 kts 292°
2026-05-07 14:10 28.41738 -16.14634 4759 ft 195 kts 294°
2026-05-07 14:10 28.42261 -16.16038 4737 ft 193 kts 293°
2026-05-07 14:11 28.42756 -16.17448 4675 ft 193 kts 293°
2026-05-07 14:11 28.43241 -16.18895 4457 ft 194 kts 291°
2026-05-07 14:11 28.43704 -16.20311 4268 ft 187 kts 292°
2026-05-07 14:11 28.44143 -16.21659 4031 ft 182 kts 291°
2026-05-07 14:12 28.44579 -16.22990 3765 ft 176 kts 292°
2026-05-07 14:12 28.44994 -16.24259 3528 ft 162 kts 291°
2026-05-07 14:12 28.45373 -16.25412 3297 ft 150 kts 293°
2026-05-07 14:12 28.45716 -16.26458 3091 ft 136 kts 295°
2026-05-07 14:13 28.46042 -16.27442 2921 ft 131 kts 293°
2026-05-07 14:13 28.46362 -16.28408 2777 ft 130 kts 293°
2026-05-07 14:13 28.46681 -16.29369 2611 ft 130 kts 294°
2026-05-07 14:13 28.46996 -16.30325 2448 ft 130 kts 294°
2026-05-07 14:14 28.47314 -16.31278 2268 ft 130 kts 293°
2026-05-07 14:14 28.47629 -16.32237 2097 ft 129 kts 294°
2026-05-07 14:14 28.47948 -16.33173 2012 ft 120 kts 291°
2026-05-07 14:14 28.48188 -16.33914 2018 ft 75 kts 288°
2026-05-07 14:15 28.48321 -16.34320 2035 ft 33 kts 292°
2026-05-07 14:15 28.48380 -16.34481 2045 ft 19 kts 291°
2026-05-07 14:15 28.48445 -16.34679 2055 ft 42 kts 289°
2026-05-07 14:15 28.48511 -16.34882 2062 ft 11 kts 290°
2026-05-07 14:16 28.48506 -16.34866 2061 ft 14 kts 289°
2026-05-07 14:16 28.48525 -16.34925 2063 ft 40 kts 290°
2026-05-07 14:16 28.48628 -16.35198 2062 ft 29 kts 303°
2026-05-07 14:16 28.48742 -16.35319 2057 ft 18 kts 21°
2026-05-07 14:17 28.48738 -16.35249 2057 ft 9 kts 115°
2026-05-07 14:17 28.48723 -16.35189 2058 ft 25 kts 99°